Regional Weather Roundup
Issued by NWS

Home | Current Version | Previous Version | Graphics & Text | Print | Product List | Glossary On
Versions: 1 2 3 4 5 6 7 8 9 10 11 12 13 14 15 16 17 18 19 20 21 22 23 24 25 26 27 28 29 30 31 32 33 34 35 36 37 38 39 40 41 42 43 44 45 46 47 48 49 50
000
ASUS45 KBOU 280710
RWRCO

WEATHER ROUNDUP FOR COLORADO
NATIONAL WEATHER SERVICE PUEBLO CO
100 AM MDT TUE JUL 28 2015

NOTE: "FAIR" INDICATES FEW OR NO CLOUDS BELOW 12000 FEET WITH NO
SIGNIFICANT WEATHER AND/OR OBSTRUCTIONS TO VISIBILITY.

COZ001>005-013-030-031-280800-
...NORTHWEST COLORADO...

CITY           SKY/WX    TMP DP  RH WIND       PRES   REMARKS
CRAIG          CLEAR     52  33  48 W7        30.23R
HAYDEN         CLEAR     54  28  37 W7        30.23R
MEEKER         CLEAR     61  32  33 NE12G17   30.22R
MOUNT WERNER   NOT AVBL
STEAMBOAT SPGS FAIR      53  33  47 SW6       30.24R
WALDEN         FAIR      50  30  46 NW6       30.28R
$$

COZ006>008-011-280800-
...WEST CENTRAL VALLEYS...

CITY           SKY/WX    TMP DP  RH WIND       PRES   REMARKS
GRAND JUNCTION CLEAR     65  34  31 SE5       30.03R
MONTROSE       CLEAR     65  36  34 SE13      30.10S
EAGLE          CLEAR     57  36  44 E5        30.18R
RIFLE          CLEAR     69  34  27 N6        30.10R
DELTA          NOT AVBL
NUCLA          FAIR      63  30  29 E12       30.13F
$$

COZ017>023-064>068-280800-
...SOUTHWEST COLORADO...

CITY           SKY/WX    TMP DP  RH WIND       PRES   REMARKS
DURANGO        CLEAR     60  37  42 N6        30.16F
CORTEZ         CLEAR     57  37  47 NE6       30.12R
PAGOSA SPRINGS FAIR      54  40  60 CALM      30.26S
TELLURIDE      CLEAR     55  32  41 SE8       30.39S
WOLF CREEK PAS NOT AVBL
$$

COZ009-010-012-014-032>034-037-058>063-280800-
...CENTRAL COLORADO...

CITY           SKY/WX    TMP DP  RH WIND       PRES   REMARKS
ASPEN          CLEAR     52  36  54 CALM      30.24R
BUENA VISTA    FAIR      56  28  33 CALM      30.24S
COPPER MTN     CLEAR     54  21  28 SW14G22   30.54S
BERTHOUD PASS  FAIR      43  32  65 NW21G28   30.55R
COTTONWOOD PAS CLEAR     64  14  14 W9G17     30.37F
GUNNISON       NOT AVBL
KREMMLING      CLEAR     59  27  29 NW7       30.25R
LEADVILLE      CLEAR     46  27  47 CALM      30.38R
MONARCH PASS   CLEAR     46  27  46 W30G39    30.63F
SALIDA         FAIR      67  29  23 W8        30.27S
NIWOT RIDGE    NOT AVBL
SUNLIGHT       CLEAR     50  28  43 W5        30.47R
WILKERSON PASS CLEAR     54  21  28 SW22G31   30.46F
$$

COZ069>075-280800-
...SAN LUIS VALLEY/SANGRE DE CRISTO MOUNTAINS...

CITY           SKY/WX    TMP DP  RH WIND       PRES   REMARKS
ALAMOSA        CLEAR     49  42  77 NE6       30.22R
LA VETA PASS   CLEAR     55  34  44 MISG      30.40F
SAGUACHE       CLEAR     59  36  41 N5        30.25S
$$

COZ035-036-038>040-280800-
...NORTHERN COLORADO FRONT RANGE...

CITY           SKY/WX    TMP DP  RH WIND       PRES   REMARKS
DENVER INTL AP CLEAR     71  37  28 SW7       29.96R
DMNS CITY PARK NOT AVBL
AURORA         PTCLDY    67  39  36 S10       30.00R
FRONT RANGE AP NOT AVBL
ERIE MUNI ARPT FAIR      67  36  31 SW6       29.93S
BOULDER MUN AP FAIR      73  32  21 SW10      29.94S
CENTENNIAL     CLEAR     72  32  23 SW9       30.00S
BROOMFIELD     CLEAR     70  34  26 W6        29.99R
LOVELAND       CLEAR     72  39  30 N15       29.95R
LONGMONT       FAIR      69  43  38 NW6       29.96R
$$

COZ041-046-047-076>085-087-088-280800-
...PIKES PEAK/PALMER DIVIDE AND SOUTHERN FOOTHILLS...

CITY           SKY/WX    TMP DP  RH WIND       PRES   REMARKS
COLO. SPRINGS  CLEAR     71  35  26 NW9       30.05R
A. F. ACADEMY  CLEAR     70  30  23 N16G25    30.07S
ELLICOTT       FAIR     N/A N/A N/A N7        30.02S
FALCON         FAIR      70  31  23 NW12      30.11R
FORT CARSON    CLEAR     66  40  37 NE6       30.00R
LIMON          CLEAR     62  54  74 NW5       29.97R
MONUMENT HILL  CLEAR     59  37  44 W9        30.12S
TRINIDAD       MOCLDY    71  46  40 SW13      30.04R
$$

COZ042>045-048>051-090-091-280800-
...NORTHEAST COLORADO...

CITY           SKY/WX    TMP DP  RH WIND       PRES   REMARKS
GREELEY ARPT   CLEAR     68  39  34 N14       29.94R
AKRON            N/A    N/A N/A N/A MISG      29.90R
BURLINGTON     CLEAR     74  61  63 S15       29.86R
WRAY           FAIR      75  58  55 SW8       29.80R
STERLING       NOT AVBL
HOLYOKE        FAIR      72  64  78 S5        29.80R
FORT MORGAN    FAIR      73  35  24 N28G35    29.92R
$$

COZ086-089-092>099-280800-
...SOUTHEAST COLORADO...

CITY           SKY/WX    TMP DP  RH WIND       PRES   REMARKS
PUEBLO         CLEAR     72  45  37 W7        29.91S
LA JUNTA       MOCLDY    78  55  44 SW14      29.87R
LAMAR          MOCLDY    83  55  38 SW18      29.82R
SPRINGFIELD      N/A     76  59  55 SW16G24   29.95S
$$




USA.gov is the U.S. government's official web portal to all federal, state and local government web resources and services.